Kosmos-2585

operational
NORAD ID: 63288 Int'l Des: 2025-054 Owner: VVKOV Country: RU
LEOCIRCULARPOLAR

Über Kosmos-2585

Beschreibung wird geladen...

Live-Position

3D-Globus wird geladen...

Nächste Überflüge

Höhenverlauf

Altitude vs Time

uPlot chart will show altitude changes over time

Zweizeiliger Elementsatz

1 63288U 25054A 26062.20534874 .00000027 00000-0 12128-3 0 9998
2 63288 82.4962 144.6134 0023249 264.1643 95.6786 12.42894835 43698
Epoch: 3. März 2026 • Age: 11 hours

Aktueller Status

Höhe 1497.4 km
Geschwindigkeit 7.12 km/s
Subsatellitenpunkt -21.11°S, 178.81°W
Startdatum 16. März 2025
Alter 0.9 years
Typ other

Technische Details

Klassifizierung Payload
Masse 280.00 kg
Trockenmasse 280.00 kg
Gesamtmasse 280.00 kg
Länge 1.60 m
Durchmesser 0.80 m
Spannweite 7.00 m
Form Cyl + Ant
Hersteller RESH
Bus-Typ Strela-3M
Phasenstatus In Orbit
Besitzer/Staat VVKOV/RU

Große Konstellationen

Loading constellations...